CW5709 Weather Reports


time (UTC)temp
C
wind
direction
speed
KPH
gust
KPH
rain 1hr
cm
rain 24hr
cm
rain mn
cm
humidity
%
barometer
mb
20260505210006 18 0.0 0.0 0.00 0.00 0.00 62 1017.0
20260505204510 17 0.0 0.0 0.00 0.00 0.00 63 1017.0
20260505203014 17 0.0 0.0 0.00 0.00 0.00 64 1017.1
20260505201518 17 0.0 0.0 0.00 0.00 0.00 64 1017.1
20260505194517 17 0.0 0.0 0.00 0.00 0.00 65 1017.1
20260505190021 16 0.0 0.0 0.00 0.00 0.00 66 1017.2
20260505184527 16 0.0 0.0 0.00 0.00 0.00 66 1017.1
20260505181515 16 0.0 0.0 0.00 0.00 0.00 68 1017.1
20260505180021 16 0.0 0.0 0.00 0.00 0.00 69 1017.0
20260505174523 16 0.0 0.0 0.00 0.00 0.00 68 1017.0
20260505173026 15 0.0 0.0 0.00 0.00 0.00 68 1016.9
20260505171511 15 0.0 0.0 0.00 0.00 0.00 71 1016.8
20260505164519 14 0.0 0.0 0.00 0.00 0.00 74 1016.8
20260505163022 13 0.0 0.0 0.00 0.00 0.00 74 1016.8
20260505161524 13 0.0 0.0 0.00 0.00 0.00 74 1016.8
20260505153021 13 0.0 0.0 0.00 0.00 0.00 77 1016.6
20260505151525 13 0.0 0.0 0.00 0.00 0.00 78 1016.5
20260505120007 12 0.0 0.0 0.00 0.00 0.00 81 1015.5
20260505114510 12 0.0 0.0 0.00 0.00 0.00 81 1015.4
20260505113018 12 0.0 0.0 0.00 0.00 0.00 81 1015.5
20260505111521 12 0.0 0.0 0.00 0.00 0.00 81 1015.5
20260505101519 12 0.0 0.0 0.00 0.00 0.00 81 1015.2
20260505100024 12 0.0 0.0 0.00 0.00 0.00 82 1015.1
20260505094530 12 0.0 0.0 0.00 0.00 0.00 82 1015.1
20260505093014 12 0.0 0.0 0.00 0.00 0.00 82 1015.1
20260505091515 12 0.0 0.0 0.00 0.00 0.00 82 1015.1
20260505090019 12 0.0 0.0 0.00 0.00 0.00 83 1014.8
20260505084540 12 0.0 0.0 0.00 0.00 0.00 83 1014.9
20260505083027 12 0.0 0.0 0.00 0.00 0.00 83 1014.9
20260505081518 12 0.0 0.0 0.00 0.00 0.00 84 1014.9
20260505080015 11 0.0 0.0 0.00 0.00 0.00 84 1015.1
20260505074520 11 0.0 0.0 0.00 0.00 0.00 84 1015.0
20260505073025 11 0.0 0.0 0.00 0.00 0.00 84 1014.9
20260505071529 11 0.0 0.0 0.00 0.00 0.00 84 1014.8
20260505070016 11 0.0 0.0 0.00 0.00 0.00 83 1014.9
20260505064520 11 0.0 0.0 0.00 0.00 0.00 83 1014.8
20260505063031 11 0.0 0.0 0.00 0.00 0.00 82 1014.9
20260505061527 11 0.0 0.0 0.00 0.00 0.00 82 1014.8
20260505060033 12 0.0 0.0 0.00 0.00 0.00 82 1014.9
20260505054518 12 0.0 0.0 0.00 0.00 0.00 81 1014.9
20260505053022 12 0.0 0.0 0.00 0.00 0.00 81 1014.6
20260505051522 12 0.0 0.0 0.00 0.00 0.00 80 1014.5
20260505041507 13 0.0 0.0 0.00 0.00 0.00 78 1013.7
20260505040009 13 0.0 0.0 0.00 0.00 0.00 77 1013.5
20260505034514 13 0.0 0.0 0.00 0.00 0.00 76 1013.2
20260505033015 13 0.0 0.0 0.00 0.00 0.00 75 1012.9
20260505031516 14 0.0 0.0 0.00 0.00 0.00 74 1012.7
20260505030008 15 0.0 0.0 0.00 0.00 0.00 73 1012.7
20260505024510 15 0.0 0.0 0.00 0.00 0.00 71 1012.4
20260505023015 16 0.0 0.0 0.00 0.00 0.00 70 1012.3
20260505021513 16 0.0 0.0 0.00 0.00 0.00 69 1012.2
20260505020016 16 0.0 0.0 0.00 0.00 0.00 67 1012.1
20260505014507 17 0.0 0.0 0.00 0.00 0.00 66 1012.2
20260505013010 17 0.0 0.0 0.00 0.00 0.00 65 1012.3
20260505011537 18 0.0 0.0 0.00 0.00 0.00 63 1012.3
20260505010020 19 0.0 0.0 0.00 0.00 0.00 61 1012.4
20260505003007 20 0.0 0.0 0.00 0.00 0.00 59 1012.3
20260505001512 20 0.0 0.0 0.00 0.00 0.00 58 1012.3
20260505000021 21 0.0 0.0 0.00 0.00 0.00 57 1012.4
20260504234520 21 0.0 0.0 0.00 0.00 0.00 56 1012.3
20260504233021 22 0.0 0.0 0.00 0.00 0.00 56 1012.3
20260504231509 22 0.0 0.0 0.00 0.00 0.00 55 1012.4
20260504230014 22 0.0 0.0 0.00 0.00 0.00 52 1012.5
20260504224518 24 0.0 0.0 0.00 0.00 0.00 49 1012.7
20260504223025 24 0.0 0.0 0.00 0.00 0.00 49 1012.8
20260504221523 25 0.0 0.0 0.00 0.00 0.00 49 1012.9
20260504220012 25 0.0 0.0 0.00 0.00 0.00 48 1013.0